sat.trackr.live / text

‹ back to catalog

ONEWEB-0138

NORAD 47284 · 2020-100AC

PAYLOAD ACTIVE UNKNOWN

§ Identity

Operator
Country
UK
Launch date
2020-12-18
Launch site
VOSTO
Launch vehicle
Mass (kg)
RCS (m²)

Purposes: comms

External: N2YO · Heavens-Above · Gunter

§ Orbital elements

Epoch: 2026-09-19T12:12:40.794336Z

Period
109.72 min
Inclination
87.8977°
Eccentricity
0.0001654
Mean motion
13.12442412 rev/d
Perigee alt
1,212.5 km
Apogee alt
1,215.0 km
Semi-major
7,591.9 km
B*
1.5853e-4
RAAN
331.9420°
Arg perigee
96.5109°
Mean anomaly
263.6207°
Rev number
27,702

§ Raw data

ONEWEB-01381 47284U 20100AC  26262.50880549  .00000070  00000+0  15853-3 0  99962 47284  87.8977 331.9420 0001654  96.5109 263.6207 13.12442412277029

JSON: /api/v1/satellites/47284 · /tle

For live sub-satellite position, see the globe view (requires WebGL).

§ Visibility from observer

Set your observer location to see the next 7 days of passes ≥ 10°. The values pass through the URL so the page stays shareable.

No JS? Fill the form by hand. The geolocation button needs JavaScript.